"Pseudo-MPEC" for P222yvD

Created 2024 Dec 2 0:31:27 UT using Find_Orb

Click here for an explanation of pseudo-MPECs

 
 Astrometry: 
     P222yvD* C2024 11 28.50841707 19 55.462+37 49 51.58   ~BSEH 21.09wXNEOCPF52
     P222yvD  C2024 11 28.52008407 19 53.367+37 49 10.18   ~BSEH 21.18wXNEOCPF52
     P222yvD  C2024 11 28.53182607 19 51.240+37 48 28.26   ~BSEH 21.23wXNEOCPF52
     P222yvD  C2024 11 28.54373807 19 49.077+37 47 45.66   ~BSEH 21.00wXNEOCPF52
     P222yvD  C2024 11 28.60350507 19 38.265+37 44 09.56   ~BSIl 21.05GVNEOCPF51
     P222yvD  C2024 11 28.60415107 19 38.146+37 44 07.38   ~BSIl 21.10GVNEOCPF51
     P222yvD KB2024 11 29.08332 07 18 19.80 +37 14 49.5    ~BTBl 21.0 GVNEOCP204
     P222yvD KB2024 11 29.11179 07 18 14.64 +37 13 04.7    ~BTBl       VNEOCP204
     P222yvD KC2024 11 29.28035707 17 48.440+37 02 44.34   ~BT72 20.32GVNEOCPI52
     P222yvD KC2024 11 29.28140107 17 48.347+37 02 40.63   ~BT72 20.35GVNEOCPI52
     P222yvD KC2024 11 29.28244907 17 48.170+37 02 36.89   ~BT72 20.91GVNEOCPI52
     P222yvD KC2024 11 30.09978307 15 25.57 +36 11 15.1    ~BU3H 20.9 GVNEOCPL01
     P222yvD KC2024 11 30.10355507 15 24.90 +36 11 00.3    ~BU3H 20.8 GVNEOCPL01
     P222yvD KC2024 11 30.10743407 15 24.15 +36 10 45.2    ~BU3H 20.7 GVNEOCPL01
     P222yvD  C2024 11 30.11262 07 15 23.46 +36 10 26.4    ~BU3l 20.8 RXNEOCP511
     P222yvD  C2024 11 30.11555 07 15 22.89 +36 10 15.3    ~BU3l 20.8 RXNEOCP511
     P222yvD  C2024 11 30.11847 07 15 22.36 +36 10 03.8    ~BU3l 20.9 RXNEOCP511
     P222yvD  C2024 11 30.12140 07 15 21.82 +36 09 53.2    ~BU3l 21.1 RXNEOCP511
     P222yvD  C2024 11 30.12448 07 15 21.22 +36 09 41.1    ~BU3l 20.8 RXNEOCP511

Station data:
(204) Schiaparelli Observatory  (N45.868292 E8.769720)  Italy.  Observer L.
   Buzzi. 0.60-m f/4.64 Newtonian + CCD0.84-m f/3.5 reflector + CCD.
(511) Haute Provence  (N43.931873 E5.715700)  France.  Observers W.
   Polycarpe, M. Dennefield, W. Thuillot, B. Carry, P. David, S. Bouquillon,
   F. Taris, P. Tanga, M. Delbó, E. Saquet, V. Robert. Measurers W. Thuillot,
   S. Bouquillon, F. Taris, T. Carlucci, C. Barache. 1.20-m f/6 reflector +
   CCD.
(F51) Pan-STARRS 1, Haleakala  (N20.707234 W156.255910)  US/Hawaii.
   Observers J. Bulger, T. Lowe, A. Schultz, M. Willman. Measurers K.
   Chambers, S. Chastel, T. de Boer, L. Denneau, J. Fairlamb, H. Flewelling,
   M. Huber, C.-C. Lin, E. Magnier, Y. Ramanjooloo, R. Wainscoat, R. Weryk.
   1.8-m Ritchey-Chrétien + CCD.
(F52) Pan-STARRS 2, Haleakala  (N20.707382 W156.255910)  US/Hawaii.
   Observers J. Bulger, T. Dukes, T. Lowe, A. Schultz, M. Willman. Measurers
   K. Chambers, S. Chastel, T. de Boer, L. Denneau, J. Fairlamb, H.
   Flewelling, M. Huber, C.-C. Lin, E. Magnier, Y. Ramanjooloo, R. Wainscoat,
   R. Weryk. 1.8-m Ritchey-Chrétien + CCD.
(I52) Steward Observatory, Mt. Lemmon Station  (N32.442570 W110.788920)
   US/Arizona.  Observers T. A. Pruyne, B. M. Africano, E. J. Christensen, G.
   A. Farneth, D. C. Fuls, A. R. Gibbs, A. D. Grauer, H. Gröller, J. A.
   Johnson, R. A. Kowalski, S. M. Larson, G. J. Leonard, D. Rankin, R. L.
   Seaman, F. C. Shelly, K. W. Wierzchoś. 1.0-m prime focus + CCD.
(L01) Višnjan Observatory, Tičan  (N45.290897 E13.749300)  Croatia.
   Observers K. Korlević, D. Pujagic, V. Dobos. Measurers D. Pujagic, K.
   Korlević. 1.0-m f/2.9 reflector + CCD.

Orbital elements:  P222yvD
   Perihelion 2024 May 13.84969 +/- 1.62 TT = 20:23:33 (JD 2460444.34969)
Epoch 2024 Nov 30.0 TT = JDT 2460644.5   Earth MOID: 0.0445      AutoNEOCP
M 165.74770496 +/- 1.4              (J2000 ecliptic)
n   0.82811614 +/- 0.00225          Peri.    5.13368 +/- 1.3
a   1.12307445 +/- 0.00203          Node   262.06379 +/- 0.022
e   0.0562865 +/- 0.00087           Incl.   21.87021 +/- 0.15
P   1.190/434.713d         H 22.40  G  0.15   U  8.7
q 1.05986050 +/- 0.00283    Q 1.18628840 +/- 0.00133
From 19 observations 2024 Nov. 28-30 (38.8 hr); mean residual 0".22
Residuals in arcseconds: 
241128 F52  .04+  .15-    241129 204  .07-  .16-    241130 511  .04+  .24-    
241128 F52  .13+  .03-    241129 I52  .97-  .09+    241130 511  .19-  .07-    
241128 F52  .06+  .03-    241129 I52  .15+  .15+    241130 511  .04+  .33-    
241128 F52  .05-  .03+    241129 I52  .27+  .20+    241130 511  .17+  .36+    
241128 F51  .04-  .01-    241130 L01  .12-  .23+    241130 511  .08-  .12+    
241128 F51  .07-  .16+    241130 L01  .33+  .05-    
241129 204  .19+  .17-    241130 L01  .06+  .20-    

Ephemerides (geocentric):
Date (UTC) HH   RA             Dec           delta  r     elong  mag " sig PA
---- --------  ------------   ------------  ------ ------ -----  --- --------
2024 12 02 01  07 09 34.606   +34 02 23.52  .23653 1.1849 143.7 20.9 .464 121
2024 12 02 02  07 09 26.802   +33 59 30.94  .23638 1.1849 143.8 20.9 .478 121
2024 12 02 03  07 09 18.987   +33 56 38.07  .23622 1.1849 143.9 20.9 .492 120
2024 12 02 04  07 09 11.161   +33 53 44.93  .23606 1.1850 143.9 20.9 .506 120
2024 12 02 05  07 09 03.324   +33 50 51.51  .23591 1.1850 144.0 20.9 .521 120
2024 12 02 06  07 08 55.477   +33 47 57.82  .23575 1.1850 144.1 20.9 .535 120
2024 12 02 07  07 08 47.619   +33 45 03.84  .23560 1.1850 144.2 20.9 .550 119
2024 12 02 08  07 08 39.751   +33 42 09.59  .23544 1.1850 144.2 20.9 .565 119
2024 12 02 09  07 08 31.871   +33 39 15.06  .23529 1.1850 144.3 20.9 .581 119
2024 12 02 10  07 08 23.982   +33 36 20.25  .23514 1.1850 144.4 20.9 .596 119
2024 12 02 11  07 08 16.081   +33 33 25.17  .23498 1.1850 144.5 20.9 .612 118
2024 12 02 12  07 08 08.171   +33 30 29.80  .23483 1.1850 144.5 20.9 .628 118
2024 12 02 13  07 08 00.249   +33 27 34.16  .23468 1.1850 144.6 20.9 .644 118
2024 12 02 14  07 07 52.318   +33 24 38.24  .23452 1.1850 144.7 20.9 .660 118
2024 12 02 15  07 07 44.376   +33 21 42.05  .23437 1.1850 144.8 20.9 .677 118
2024 12 02 16  07 07 36.423   +33 18 45.57  .23422 1.1850 144.8 20.9 .693 117
2024 12 02 17  07 07 28.460   +33 15 48.82  .23407 1.1850 144.9 20.9 .710 117
2024 12 02 18  07 07 20.487   +33 12 51.79  .23392 1.1851 145.0 20.9 .727 117
2024 12 02 19  07 07 12.503   +33 09 54.48  .23377 1.1851 145.1 20.9 .745 117
2024 12 02 20  07 07 04.509   +33 06 56.89  .23362 1.1851 145.1 20.9 .762 117
2024 12 02 21  07 06 56.505   +33 03 59.03  .23347 1.1851 145.2 20.9 .780 117
2024 12 02 22  07 06 48.491   +33 01 00.88  .23332 1.1851 145.3 20.9 .798 116
2024 12 02 23  07 06 40.466   +32 58 02.46  .23317 1.1851 145.4 20.9 .816 116
2024 12 03 00  07 06 32.432   +32 55 03.76  .23302 1.1851 145.4 20.8 .834 116
2024 12 03 01  07 06 24.387   +32 52 04.79  .23287 1.1851 145.5 20.8 .853 116
2024 12 03 02  07 06 16.332   +32 49 05.53  .23272 1.1851 145.6 20.8 .872 116
2024 12 03 03  07 06 08.267   +32 46 06.00  .23257 1.1851 145.7 20.8 .891 116
2024 12 03 04  07 06 00.192   +32 43 06.19  .23242 1.1851 145.7 20.8 .910 115
2024 12 03 05  07 05 52.106   +32 40 06.11  .23228 1.1851 145.8 20.8 .929 115
2024 12 03 06  07 05 44.011   +32 37 05.74  .23213 1.1851 145.9 20.8 .948 115
2024 12 03 07  07 05 35.906   +32 34 05.10  .23198 1.1851 146.0 20.8 .968 115
2024 12 03 08  07 05 27.791   +32 31 04.18  .23184 1.1852 146.0 20.8 .988 115
2024 12 03 09  07 05 19.666   +32 28 02.98  .23169 1.1852 146.1 20.8 1.01 115
2024 12 03 10  07 05 11.532   +32 25 01.51  .23155 1.1852 146.2 20.8 1.03 115
2024 12 03 11  07 05 03.387   +32 21 59.76  .23140 1.1852 146.3 20.8 1.05 115
2024 12 03 12  07 04 55.233   +32 18 57.73  .23126 1.1852 146.4 20.8 1.07 114
2024 12 03 13  07 04 47.068   +32 15 55.43  .23111 1.1852 146.4 20.8 1.09 114
2024 12 03 14  07 04 38.894   +32 12 52.84  .23097 1.1852 146.5 20.8 1.11 114
2024 12 03 15  07 04 30.711   +32 09 49.99  .23082 1.1852 146.6 20.8 1.13 114
2024 12 03 16  07 04 22.517   +32 06 46.85  .23068 1.1852 146.7 20.8 1.15 114
2024 12 03 17  07 04 14.314   +32 03 43.44  .23054 1.1852 146.7 20.8 1.18 114
2024 12 03 18  07 04 06.102   +32 00 39.75  .23039 1.1852 146.8 20.8 1.20 114
2024 12 03 19  07 03 57.880   +31 57 35.79  .23025 1.1852 146.9 20.8 1.22 114
2024 12 03 20  07 03 49.648   +31 54 31.55  .23011 1.1852 147.0 20.8 1.24 114
2024 12 03 21  07 03 41.407   +31 51 27.03  .22997 1.1852 147.0 20.8 1.26 114
2024 12 03 22  07 03 33.156   +31 48 22.24  .22983 1.1852 147.1 20.8 1.29 114
2024 12 03 23  07 03 24.895   +31 45 17.17  .22969 1.1853 147.2 20.8 1.31 113
2024 12 04 00  07 03 16.626   +31 42 11.82  .22955 1.1853 147.3 20.8 1.33 113